Regional Weather Roundup
Issued by NWS

Home | Current Version | Previous Version | Graphics & Text | Print | Product List | Glossary On
Versions: 1 2 3 4 5 6 7 8 9 10 11 12 13 14 15 16 17 18 19 20 21 22 23 24 25 26 27 28 29 30 31 32 33 34 35 36 37 38 39 40 41 42 43 44 45 46 47 48 49 50
014
ASUS45 KSLC 250210
RWRUT

UTAH REGIONAL WEATHER ROUNDUP
NATIONAL WEATHER SERVICE SALT LAKE CITY UT
700 PM MST FRI FEB 24 2017

UTZ001>011-023>025-250300-

NORTHERN UTAH

CITY           SKY/WX    TMP DP  RH WIND       PRES   REMARKS
BRIGHAM CITY     N/A     28  14  57 CALM      30.13S
HILL AFB       CLEAR     23  11  60 CALM      30.11R
LOGAN          MOCLDY    26  18  71 CALM      30.12R
OGDEN          PTCLDY    25  13  60 SE3       30.11R
SALT LAKE CITY PTCLDY    30  15  53 SE6       30.13R WCI  24
TOOELE VALLEY  PTCLDY    28  19  69 SE5       30.13R WCI  23
WENDOVER       MOCLDY    30   7  37 NW6       30.12R WCI  24
HEBER CITY     PTCLDY    12   9  85 CALM      30.07R
WEST JORDAN    PTCLDY    28  22  80 SW8       30.13R WCI  19

$$

UTZ011>015-024>027-250300-

CENTRAL/NORTHEAST UTAH

CITY           SKY/WX    TMP DP  RH WIND       PRES   REMARKS
PROVO AIRPORT  PTCLDY    23  19  86 E3        30.15
MOAB/CANYONLAN PTCLDY    30   7  37 NW6       30.04R WCI  24
DELTA          PTCLDY    23  14  68 SE5       30.12S WCI  17
PRICE          PTCLDY    23   8  52 N9        30.03R WCI  13
RICHFIELD      CLEAR     23  14  68 CALM      30.12S
ROOSEVELT      PTCLDY    27  19  74 CALM      30.08R
VERNAL         CLOUDY    19  13  77 CALM      30.05R

$$

UTZ013>016-019>022-027-250300-

SOUTHERN UTAH

CITY           SKY/WX    TMP DP  RH WIND       PRES   REMARKS
BRYCE CANYON   CLEAR     13  -1  54 N10       30.01S WCI   0
CEDAR CITY     PTCLDY    28  10  46 SW9       30.03R WCI  19
MILFORD        CLEAR     25  17  72 N7        30.08S WCI  17
ST GEORGE      PTCLDY    43  10  26 SW7       30.12R
HANKSVILLE     CLEAR     32   1  27 NW12G18   30.09R WCI  23
KANAB          CLEAR     32   9  37 SW6       30.12R WCI  26
BLANDING       PTCLDY    28   7  41 NW3       30.09S

$$

REGIONAL REPORTS     COLORADO/ARIZONA

CITY           SKY/WX    TMP DP  RH WIND       PRES   REMARKS
CRAIG, CO      CLOUDY    13   5  70 SW5       30.01R WCI   5
GRAND JUNCTION PTCLDY    27  19  72 NW13      30.04R WCI  16
RIFLE, CO      LGT SNOW  25  20  81 SW9       30.03R WCI  15
MONTROSE, CO   CLOUDY    24  20  84 S8        30.05R WCI  15
CORTEZ, CO     MOCLDY    26  18  71 NE3       30.03R
COLORADO CITY    N/A     32   9  37 NW3       30.11R
PAGE, AZ       CLEAR     40 -11  11 W10       30.04R WCI  33
GRAND CANYON   CLEAR     28   5  37 W3        30.06R
KINGMAN, AZ    CLEAR     41  -2  16 N7        30.10R
FLAGSTAFF, AZ  CLEAR     31   7  36 SW9       30.04R WCI  23

$$

REGIONAL REPORTS    NEVADA/IDAHO/WYOMING

CITY           SKY/WX    TMP DP  RH WIND       PRES   REMARKS
LAS VEGAS, NV  PTCLDY    50  12  21 E8        30.09R
ELY, NY        CLEAR     13   6  74 SE8       30.06R WCI   2
ELKO, NV       PTCLDY    27  10  49 NW5       30.08R WCI  22
POCATELLO, ID  MOCLDY    19  11  70 S9        30.13R WCI   8
BURLEY, ID     CLEAR     24  13  62 SW8       30.12R WCI  15
FORT BRIDGER,    N/A     11   8  84 W16       30.03R WCI  -5
EVANSTON, WY   PTCLDY     9   1  70 W10       30.01R WCI  -5
ROCK SPRINGS,  CLOUDY    15   8  73 W17       29.97R WCI  -1

$$




USA.gov is the U.S. government's official web portal to all federal, state and local government web resources and services.